Regional Weather Roundup
Issued by NWS

Home | Current Version | Previous Version | Graphics & Text | Print | Product List | Glossary On
Versions: 1 2 3 4 5 6 7 8 9 10 11 12 13 14 15 16 17 18 19 20 21 22 23 24 25 26 27 28 29 30 31 32 33 34 35 36 37 38 39 40 41 42 43 44 45 46 47 48 49 50
000
ASUS43 KMPX 292010
RWRMN
WEATHER ROUNDUP FOR MINNESOTA
NATIONAL WEATHER SERVICE TWIN CITIES/CHANHASSEN MN
300 PM CDT SUN MAR 29 2015


NOTE: "FAIR" INDICATES FEW OR NO CLOUDS BELOW 12,000 FEET WITH NO
SIGNIFICANT WEATHER AND/OR OBSTRUCTIONS TO VISIBILITY. N/A MEANS
CURRENT SKY AND/OR WEATHER CONDITIONS ARE NOT AVAILABLE.

MNZ060>063-068>070-292100-
   Twin Cities Metro

CITY           SKY/WX    TMP DP  RH WIND       PRES   REMARKS
TWIN CITIES    MOSUNNY   51  35  54 NW24G36   29.73R
ST PAUL        PTSUNNY   51  37  58 NW22G37   29.73R
CRYSTAL        MOSUNNY   52  33  48 NW20G38   29.73R
BLAINE         PTSUNNY   52  37  58 W28G36    29.71R
LAKEVILLE      MOSUNNY   48  37  66 W26G36    29.74R
EDEN PRAIRIE   SUNNY     51  33  50 NW28G38   29.74R
SOUTH ST PAUL  MOSUNNY   51  36  57 NW26G36   29.72R
LAKE ELMO      PTSUNNY   50  37  62 NW23G31   29.71R
$$
MNZ001>005-007-008-013>017-022>024-027-028-292100-
   Northwest Minnesota

CITY           SKY/WX    TMP DP  RH WIND       PRES   REMARKS
BEMIDJI        PTSUNNY   46  29  51 NW26G37   29.77R
HALLOCK        SUNNY     50  32  50 NW25G33   29.84R
ROSEAU         MOSUNNY   48  34  57 NW18G26   29.78R
WARROAD        SUNNY     46  30  53 NW22G31   29.76R
THIEF RVR FALL PTSUNNY   48  32  53 NW25G36   29.83S
CROOKSTON      MOSUNNY   54  30  40 N28G36    29.86S
FOSSTON        MOSUNNY   45  34  65 NW28G38   29.83S
DETROIT LAKES  MOSUNNY   46  32  57 NW26G38   29.85R
MOORHEAD       MOSUNNY   54  30  40 NW23G33   29.88F
PARK RAPIDS    MOSUNNY   50  30  46 NW29G39   29.78R
MAHNOMEN       MOCLDY    47  34  61 NW28G36   29.84R
$$
MNZ006-009>011-018-025>026-292100-
   North Central Minnesota

CITY           SKY/WX    TMP DP  RH WIND       PRES   REMARKS
BAUDETTE       SUNNY     44  31  60 NW24      29.72R
FLAG ISLAND    SUNNY     39  27  60 NW30      29.73R
INTL FALLS     PTSUNNY   42  29  59 NW23G35   29.66R
WASKISH        PTSUNNY   45  32  61 NW21G28   29.74R
BIG FORK       MOSUNNY   41  28  60 NW13G30   29.69R
LONGVILLE      SUNNY     45  28  53 NW17G26   29.73R
GRAND RAPIDS   CLOUDY    41  28  60 NW37G46   29.68R
CRANE LAKE     CLOUDY    36  34  93 NW14G22   29.62R
ORR            CLOUDY    37  32  81 NW17G29   29.60R
COOK           MIX PCPN  37  34  87 NW17G30   29.62R
WALKER         MOCLDY    46  28  50 NW18G36   29.75R
$$
MNZ012-019>021-037-292100-
   Northeast Minnesota

CITY           SKY/WX    TMP DP  RH WIND       PRES   REMARKS
DULUTH         LGT RAIN  38  32  79 NW25G32   29.60R
ELY            CLOUDY    37  32  81 NW17G25   29.55R
HIBBING        LGT RAIN  40  33  76 NW24G36   29.63R
EVELETH        LGT RAIN  36  34  93 NW14G26   29.61R
DULUTH HARBOR  CLOUDY    41  36  81 NW26G37   29.62R
TWO HARBORS    DRIZZLE   45  36  70 NW16G25   29.54R
SILVER BAY     MOSUNNY   45  36  70 NW12G23   29.50R
GRAND MARAIS     N/A     40  34  79 MISG      29.44R
G MARAIS ARPRT CLOUDY    34  28  80 NW15G28   29.40R WCI  24
$$
MNZ029>031-032-039>041-046>048-054>057-064-292100-
   West Central Minnesota

CITY           SKY/WX    TMP DP  RH WIND       PRES   REMARKS
FERGUS FALLS   PTSUNNY   50  28  43 NW30G37   29.89S
WHEATON        MOSUNNY   52  28  40 NW26G36   29.92S
MORRIS         MOSUNNY   54  34  47 NW30G40   29.87R
ALEXANDRIA     PTSUNNY   48  31  51 NW21G38   29.85R
ELBOW LAKE     PTSUNNY   48  32  53 NW31G41   29.87R
WADENA         MOSUNNY   46  30  53 NW28G39   29.81R
GLENWOOD       MOSUNNY   50  36  57 NW26G36   29.85R
APPLETON       SUNNY     55  30  38 NW31G39   29.90R
BENSON         MOSUNNY   54  30  40 N32G41    29.87S
ORTONVILLE     MOSUNNY   54  30  40 NW23G31   29.91S
MADISON        SUNNY     55  27  33 NW30G44   29.91S
WILLMAR        FAIR      52  34  50 NW33G45   29.87R
$$
MNZ033>034-036-042>043-049>051-058-059-292100-
   Central Minnesota

CITY           SKY/WX    TMP DP  RH WIND       PRES   REMARKS
ST CLOUD       SUNNY     50  31  48 NW33G46   29.76R
SAUK CENTRE    FAIR      48  32  53 NW31G38   29.82R
PAYNESVILLE    MOSUNNY   47  31  55 W28G43    29.83R
AITKIN         MOSUNNY   50  30  46 NW17G29   29.69R
PINE RIVER     MOSUNNY   46  28  49 NW20G33   29.77R
BRAINERD       SUNNY     50  28  42 NW23G40   29.73R
STAPLES        SUNNY     48  28  46 NW25G40   29.78R
LONG PRAIRIE   FAIR      46  32  57 W26G39    29.81R
LITTLE FALLS   MOSUNNY   48  28  46 NW24G31   29.77R
LITCHFIELD     SUNNY     52  30  43 NW20G35   29.82R
BUFFALO        SUNNY     50  32  50 W22G32    29.78R
MAPLE LAKE     SUNNY     50  35  55 NW20G30   29.78R
$$
MNZ037-044-045-052-053-292100-
   East Central Minnesota

CITY           SKY/WX    TMP DP  RH WIND       PRES   REMARKS
PRINCETON      SUNNY     52  34  50 NW25G39   29.73R
MORA           MOSUNNY   48  32  53 NW25G31   29.71R
CAMBRIDGE      MOSUNNY   54  36  50 NW26G32   29.69R
RUSH CITY      PTSUNNY   47  33  59 NW24G33   29.70R
MOOSE LAKE     CLOUDY    41  32  70 NW16G24   29.66R
HINCKLEY       CLOUDY    45  34  65 NW28G37   29.69R
CLOQUET        DRIZZLE   39  32  75 NW21G31   29.64R
MCGREGOR       CLOUDY    43  32  65 NW17G32   29.68R
$$
MNZ071>073-080-081-089-090-097-098-292100-
   Southwest Minnesota

CITY           SKY/WX    TMP DP  RH WIND       PRES   REMARKS
MONTEVIDEO     MOSUNNY   55  34  44 N26G40    29.89S
GRANITE FALLS  MOSUNNY   54  33  44 W33G41    29.91S
CANBY          SUNNY     56  27  33 NW30G40   29.94R
MARSHALL       SUNNY     55  27  33 N33G46    29.91R
REDWOOD FALLS  MOSUNNY   55  31  39 NW23G40   29.87R
OLIVIA         MOSUNNY   52  36  54 NW32G41   29.85R
PIPESTONE      SUNNY     55  25  30 NW26G39   29.94S
WINDOM         SUNNY     55  28  35 NW32G41   29.88R
WORTHINGTON    SUNNY    N/A N/A N/A NW30G41   29.92R
JACKSON        SUNNY     55  23  28 NW37G46   29.89R
TRACY          SUNNY     56  30  36 NW30G40   29.91R
SLAYTON        SUNNY     55  20  26 NW30G41   29.92S
$$
MNZ065>067-074>077-082>085-091>093-292100-
   South Central Minnesota

CITY           SKY/WX    TMP DP  RH WIND       PRES   REMARKS
MANKATO        SUNNY    N/A N/A N/A NW31G46   29.81R
NEW ULM        SUNNY     54  32  43 NW31G45   29.84R
ST JAMES       SUNNY     57  32  38 NW25G39   29.86R
FAIRMONT       SUNNY     55  30  38 NW32G39   29.85R
GLENCOE        SUNNY     51  38  60 NW24G37   29.80R
FARIBAULT      SUNNY     48  37  66 W25G39    29.78R
OWATONNA       MOSUNNY   48  36  61 NW36      29.78R
WASECA         MOSUNNY   50  39  66 NW36G41   29.81R
ALBERT LEA     MOSUNNY   52  37  58 NW25G38   29.79R
$$
MNZ078>079-086>088-094>096-292100-
   Southeast Minnesota

CITY           SKY/WX    TMP DP  RH WIND       PRES   REMARKS
ROCHESTER      CLOUDY    42  35  76 NW25G36   29.73R
RED WING       CLOUDY    48  39  71 NW14G25   29.70R
STANTON        MOSUNNY   50  38  62 W32G40    29.74R
DODGE CENTER   MOSUNNY   45  37  76 NW24G35   29.74S
WINONA         CLOUDY    43  36  75 NW14G28   29.71R
AUSTIN         MOSUNNY   48  37  66 NW26G32   29.76F
PRESTON        CLOUDY    40  34  80 NW23G30   29.75R
$$
ABBREVIATIONS USED IN REMARKS
   TC - TEMPERATURES IN CELSIUS
  WCI - WIND CHILL INDEX
   HX - HEAT INDEX
  VSB - VISIBILITY
$$


USA.gov is the U.S. government's official web portal to all federal, state and local government web resources and services.